lahainaweather.org lahainaweather.org

lahainaweather.org

Lahaina Maui Weather

PHJH 102045Z 05013G24KT 15SM SCT035 BKN055 30/20 A2998. PHNY 102058Z AUTO 05014KT 10SM SCT022 BKN027 OVC038 25/20 A3002. PHMK 102054Z 04011G22KT 10SM SCT026 BKN033 BKN060 28/20 A2999 RMK. PHOG 102054Z 04013KT 10SM SCT039 SCT050 30/21 A2998 RMK AO2 SLP156. PHNL 102053Z 04015G18KT 10SM FEW026 SCT039 SCT055 31/19 A2997 RMK. PHKO 102053Z 23007KT 10SM CLR 30/22 A2991 RMK AO2 SLP129 T03000222. Leeward Waters Forecasts TOP. MAUI COUNTY LEEWARD WATERS. SMALL CRAFT ADVISORY IN EFFECT UNTIL 6 PM HST THIS EVENING.

http://www.lahainaweather.org/

TRAFFIC RANK FOR LAHAINAWEATHER.ORG

TODAY'S RATING

> 1,000,000

TRAFFIC RANK - AVERAGE PER MONTH

BEST MONTH

November

AVERAGE PER DAY Of THE WEEK

HIGHEST TRAFFIC ON

Tuesday

CUSTOMER REVIEWS

Average Rating: 4.8 out of 5 with 8 reviews
5 star
6
4 star
2
3 star
0
2 star
0
1 star
0

Hey there! Start your review of lahainaweather.org

AVERAGE USER RATING

Write a Review

CONTACTS AT LAHAINAWEATHER.ORG

Jamie Dinkelacker

Jamie Dinkelacker

973 C●●●●●l Ave

Los●●●tos , CA, 94024

US

1.65●●●●2648
ja●●●●●●●●●●●●●●●@gmail.com

View this contact

Create Account

TO VIEW CONTACTS

Remove Contacts

FOR PRIVACY ISSUES

DOMAIN REGISTRATION INFORMATION

REGISTERED
2012 June 09
UPDATED
n/a
EXPIRATION
n/a

BUY YOUR DOMAIN

Network Solutions®

DOMAIN AGE

  • 7

    YEARS

  • 7

    MONTHS

  • 13

    DAYS

NAME SERVERS

1
ns342.pair.com

CONTENT

SCORE

6.2

SCREENSHOTS
Preview of lahainaweather.org Tablet Preview of lahainaweather.org Mobile Preview of lahainaweather.org
FAVICONS
    PAGE TITLE
    Lahaina Maui Weather | lahainaweather.org contacts
    <META>
    DESCRIPTION
    PHJH 102045Z 05013G24KT 15SM SCT035 BKN055 30/20 A2998. PHNY 102058Z AUTO 05014KT 10SM SCT022 BKN027 OVC038 25/20 A3002. PHMK 102054Z 04011G22KT 10SM SCT026 BKN033 BKN060 28/20 A2999 RMK. PHOG 102054Z 04013KT 10SM SCT039 SCT050 30/21 A2998 RMK AO2 SLP156. PHNL 102053Z 04015G18KT 10SM FEW026 SCT039 SCT055 31/19 A2997 RMK. PHKO 102053Z 23007KT 10SM CLR 30/22 A2991 RMK AO2 SLP129 T03000222. Leeward Waters Forecasts TOP. MAUI COUNTY LEEWARD WATERS. SMALL CRAFT ADVISORY IN EFFECT UNTIL 6 PM HST THIS EVENING.
    <META>
    KEYWORDS
    11 kahului
    12 partly cloudy
    13 honolulu
    14 kailua / kona
    15 fair
    16 southwest
    17 metar top
    18 maalaea bay
    19 pailolo channel
    20 rest of today
    CONTENT
    PHJH 102045Z 05013G24KT 15SM SCT035 BKN055 3020 A2998. PHNY 102058Z AUTO 05014KT 10SM SCT022 BKN027 OVC038 2520 A3002. PHMK 102054Z 04011G22KT 10SM SCT026 BKN033 BKN060 2820 A2999 RMK. PHOG 102054Z 04013KT 10SM SCT039 SCT050 3021 A2998 RMK AO2 SLP156. PHNL 102053Z 04015G18KT 10SM FEW026 SCT039 SCT055 3119 A2997 RMK. PHKO 102053Z 23007KT 10SM CLR 3022 A2991 RMK AO2 SLP129 T03000222. Leeward Waters Forecasts TOP. MAUI COUNTY LEEWARD WATERS. SMALL CRAFT ADVISORY IN EFFECT UNTIL 6 PM HST THIS EVENING.
    KEYWORDS ON
    PAGE
    speed, gusts, visibility, dewpoint, pressure, mostly cloudy, northeast, lanai city, overcast, kaunakakai, kahului, partly cloudy, honolulu, kailua / kona, fair, southwest, metar top, maalaea bay, pailolo channel, rest of today, headlines, synopsis, discussion, aviation, marine
    OTHER SITES
    CONTENT-TYPE
    utf-8
    GOOGLE PREVIEW

    Lahaina Maui Weather

    https://lahainaweather.org

    PHJH 102045Z 05013G24KT 15SM SCT035 BKN055 30/20 A2998. PHNY 102058Z AUTO 05014KT 10SM SCT022 BKN027 OVC038 25/20 A3002. PHMK 102054Z 04011G22KT 10SM SCT026 BKN033 BKN060 28/20 A2999 RMK. PHOG 102054Z 04013KT 10SM SCT039 SCT050 30/21 A2998 RMK AO2 SLP156. PHNL 102053Z 04015G18KT 10SM FEW026 SCT039 SCT055 31/19 A2997 RMK. PHKO 102053Z 23007KT 10SM CLR 30/22 A2991 RMK AO2 SLP129 T03000222. Leeward Waters Forecasts TOP. MAUI COUNTY LEEWARD WATERS. SMALL CRAFT ADVISORY IN EFFECT UNTIL 6 PM HST THIS EVENING.

    TOTAL PAGES IN THIS WEBSITE

    0